Location: Gwatt
(46.7204°N, 7.6223°E)
Time: 19:32:16
(UTC+00:00)

Transit 2A - Pass Details

Date: 23 January 2021
Orbit: 600 x 958 km, 66.7° (Epoch: 26 February)

Event Time Altitude Azimuth Distance (km) Brightness Sun altitude
Rises 02:58:57 0° 190° (S) 3,522 - -41.5°
Reaches altitude 10° 03:01:39 10° 184° (S) 2,540 - -41.1°
Maximum altitude 03:07:08 42° 115° (ESE) 1,180 - -40.2°
Exits shadow 03:10:22 21° 57° (ENE) 1,738 8.3 -39.6°
Drops below altitude 10° 03:12:10 10° 46° (NE) 2,334 9.0 -39.3°
Sets 03:14:34 0° 40° (NE) 3,207 9.8 -38.9°
